Preview of NWS' New Version of Forecast
This preview is not operational and should not be used for support decisions.

Regional Weather Roundup (RWR)

Issued by National Weather Service (NWS)

                            
000
ASUS44 KMEG 201710
RWRTN 
TENNESSEE HOURLY STATE WEATHER ROUNDUP
NATIONAL WEATHER SERVICE MEMPHIS TN
1200 PM CDT THU JUN 20 2019

TNZ002-004-019-021-049-052-054-088>092-201800-
WEST TENNESSEE
  
CITY           SKY/WX    TMP DP  RH WIND       PRES   REMARKS
MEMPHIS INTL   PTSUNNY   81  70  69 SW9       29.85R                  
NWS MEMPHIS      N/A     81 N/A N/A MISG        N/A                   
JACKSON        PTSUNNY   79  70  74 SW12      29.84R                  
DYERSBURG      PTSUNNY   81  72  74 W10       29.83R                  
COVINGTON      PTSUNNY   81  70  69 W9        29.83R                  
UNION CITY     MOSUNNY   82  68  61 NW8G17    29.79R                  
BOLIVAR        CLOUDY    81  70  69 SW7G15    29.83R                  
HUNTINGDON     MOSUNNY   81  70  69 W9        29.80R                  
LEXINGTON      PTSUNNY   79  70  73 SW10      29.81S                  
SELMER         CLOUDY    77  68  73 W10       29.84R                  
SAVANNAH       CLOUDY    79  68  69 W6        29.83R                  
$$

TNZ008-025-027-028-033-062-065-066-201800-
NORTH MIDDLE TENNESSEE
  
CITY           SKY/WX    TMP DP  RH WIND       PRES   REMARKS
NASHVILLE      PTSUNNY   78  67  68 W8        29.80S                  
DICKSON        CLOUDY    77  68  73 W10G17    29.80R                  
PORTLAND       PTSUNNY   75  68  78 SW9G18    29.78R                  
CLARKSVILLE    PTSUNNY   80  70  71 W9        29.77R                  
LEBANON        PTSUNNY   77  68  73 SW10G17   29.78S                  
SMYRNA         PTSUNNY   79  70  74 W10G17    29.80S                  
MURFREESBORO   PTSUNNY   79  68  69 S12G18    29.78S                  
COOKEVILLE     PTSUNNY   75  68  78 SW9G15    29.81R                  
LIVINGSTON     MOSUNNY   72  68  88 SW9       29.80F                  
GALLATIN       CLOUDY    75  70  83 VRB6G16   29.81S                  
CROSSVILLE     PTSUNNY   69  65  86 S5        29.85F                  
ROCKWOOD       MOSUNNY   70  66  88 SW6       29.84F                  
$$

TNZ061-075-076-078-094-096-097-201800-
SOUTH MIDDLE TENNESSEE
  
CITY           SKY/WX    TMP DP  RH WIND       PRES   REMARKS
LAWRENCEBURG   CLOUDY    75  68  78 SW10      29.84R                  
LEWISBURG      PTSUNNY   79  70  73 SW6G15    29.81R                  
FAYETTEVILLE   CLOUDY    79  68  69 W13G18    29.85R                  
TULLAHOMA      MOSUNNY   75  68  78 SW14      29.83S                  
WINCHESTER     MOSUNNY   77  64  65 W15       29.84S                  
MCMINNVILLE    CLOUDY    75  68  78 SW8       29.83R                  
COLUMBIA       PTSUNNY   77  70  78 SW13      29.80R                  
SHELBYVILLE    PTSUNNY   77  70  78 SW10      29.83R                  
$$

TNZ017-018-042-046-047-201800-
NORTHEAST TENNESSEE
  
CITY           SKY/WX    TMP DP  RH WIND       PRES   REMARKS
TRI CITIES     CLOUDY    73  67  81 SW9       29.85R                  
ELIZABETHTON   PTSUNNY   73  66  78 W7G15     29.85S                  
GREENEVILLE    PTSUNNY   73  68  83 SW13      29.85S                  
$$

TNZ012-013-036-069-073-074-201800-
CENTRAL EAST TENNESSEE
  
CITY           SKY/WX    TMP DP  RH WIND       PRES   REMARKS
KNOXVILLE      CLOUDY    74  66  76 SW13      29.83F                  
OAK RIDGE      LGT RAIN  73  69  87 VRB3      29.84F FOG              
DOWNTOWN KNOXV SUNNY     73  70  88 W6        29.84R                  
GATLINBURG     CLOUDY    77  66  69 SW10      29.84S                  
MORRISTOWN     MOSUNNY   73  68  83 W12G20    29.83F                  
JACKSBORO      CLOUDY    73  63  68 VRB6G18   29.86S                  
$$

TNZ083-085-099-201800-
SOUTHEAST TENNESSEE
  
CITY           SKY/WX    TMP DP  RH WIND       PRES   REMARKS
CHATTANOOGA    LGT RAIN  77  67  71 S7        29.84S                  
$$

SKY/WX REPORTED AS FAIR MEANS FEW OR NO CLOUDS BELOW
12 THOUSAND FEET.